EHI
0 0 0 0 0 0 0 0 0 0 0 0 0 0 0 0 0 0 0 0 0 0 0 0 0 0 0 0 0 0 0 0 0 0 0 0 0 0 0 0 0 0 0 0
0 0 0 0 0 0 0 0 0 0 0 0 0 0 0 0 0 0 0 0 0 0 0 0 0 0 0 0 0 0 0 0 0 0 0 0 0 0 0 0 0 0 0 0
0 0 0 0 0 0 0 0 0 0 0 0 0 0 0 0 0 0 0 0 0 0 0 0 0 0 0 0 0 0 0 0 0 0 0 0 0 0 0 0 0 0 0 0
0 0 0 0 0 0 0 0 0 0 0 0 0 0 0 0 0 0 0 0 0 0 0 0 0 0 0 0 0 0 0 0 0 0 0 0 0 0 0 0 0 0 0 0
0 0 0 0 0 0 0 0 0 0 0 0 0 0 0 0 0 0 0 0 0 0 0 0 0 0 0 0 0 0 0 0 0 0 0 0 0 0 0 0 0 0 0 0
0 0 0 0 0 0 0 0 0 0 0 0 0 0 0 0 0 0 0 0 0 0 0 0 0 0 0 0 0 0 0 0 0 0 0 0 0 0 0 0 0 0 0 0
0 0 0 0 0 0 0 0 0 0 0 0 0 0 0 0 0 0 0 0 0 0 0 0 0 0 0 0 0 0 0 0 0 0 0 0 0 0 0 0 0 0 0 0
0 0 0 0 0 0 0 0 0 0 0 0 0 0 0 0 0 0 0 0 0 0 0 0 0 0 0 0 0 0 0 0 0 0 0 0 0 0 0 0 0 0 0 0
0 0 0 0 0 0 0 0 0 0 0 0 0 0 0 0 0 0 0 0 0 0 0 0 0 0 0 0 0 0 0 0 0 0 0 0 0 0 0 0 0 0 0 0
0 0 0 0 0 0 0 0 0 0 0 0 0 0 0 0 0 0 0 0 0 0 0 0 0 0 0 0 0 0 0 0 0 0 0 0 0 0 0 0 0 0 0 0
0 0 0 0 0 0 0 0 0 0 0 0 0 0 0 0 0 0 0 0 0 0 0 0 0 0 0 0 0 0 0 0 0 0 0 0 0 0 0 0 0 0 0 0
0 0 0 0 0 0 0 0 0 0 0 0 0 0 0 0 0 0 0 0 0 0 0 0 0 0 0 0 0 0 0 0 0 0 0 0 0 0 0 0 0 0 0 0
0 0 0 0 0 0 0 0 0 0 0 0 0 0 0 0 0 0 0 0 0 0 0 0 0 0 0 0 0 0 0 0 0 0 0 0 0 0 0 0 0 0 0 0
0 0 0 0 0 0 0 0 0 0 0 0 0 0 0 0 0 0 0 0 0 0 0 0 0 0 0 0 0 0 0 0 0 0 0 0 0 0 0 0 0 0 0 0
0 0 0 0 0 0 0 0 0 0 0 0 0 0 0 0 0 0 0 0 0 0 0 0 0 0 0 0 0 0 0 0 0 0 0 0 0 0 0 0 0 0 0 0
0 0 0 0 0 0 0 0 0 0 0 0 0 0 0 0 0 0 0 0 0 0 0 0 0 0 0 0 0 0 0 0 0 0 0 0 0 0 0 0 0 0 0 0
0 0 0 0 0 0 0 0 0 0 0 0 0 0 0 0 0 0 0 0 0 0 0 0 0 0 0 0 0 0 0 0 0 0 0 0 0 0 0 0 0 0 0 0
0 0 0 0 0 0 0 0 0 0 0 0 0 0 0 0 0 0 0 0 0 0 0 0 0 0 0 0 0 0 0 0 0 0 0 0 0 0 0 0 0 0 0 0
0 0 0 0 0 0 0 0 0 0 0 0 0 0 0 0 0 0 0 0 0 0 0 0 0 0 0 0 0 0 0 0 0 0 0 0 0 0 0 0 0 0 0 0
0 0 0 0 0 0 0 0 0 0 0 0 0 0 0 0 0 0 0 0 0 0 0 0 0 0 0 0 0 0 0 0 0 0 0 0 0 0 0 0 0 0 0 0
0 0 0 0 0 0 0 0 0 0 0 0 0 0 0 0 0 0 0 0 0 0 0 0 0 0 0 0 0 0 0 0 0 0 0 0 0 0 0 0 0 0 0 0
0 0 0 0 0 0 0 0 0 0 0 0 0 0 0 0 0 0 0 0 0 0 0 0 0 0 0 0 0 0 0 0 0 0 0 0 0 0 0 0 0 0 0 0
0 0 0 0 0 0 0 0 0 0 0 0 0 0 0 0 0 0 0 0 0 0 0 0 0 0 0 0 0 0 0 0 0 0 0 0 0 0 0 0 0 0 0 0
0 0 0 0 0 0 0 0 0 0 0 0 0 0 0 0 0 0 0 0 0 0 0 0 0 0 0 0 0 0 0 0 0 0 0 0 0 0 0 0 0 0 0 0
0 0 0 0 0 0 0 0 0 0 0 0 0 0 0 0 0 0 0 0 0 0 0 0 0 0 0 0 0 0 0 0 0 0 0 0 0 0 0 0 0 0 0 0
0 0 0 0 0 0 0 0 0 0 0 0 0 0 0 0 0 0 0 0 0 0 0 0 0 0 0 0 0 0 0 0 0 0 0 0 0 0 0 0 0 0 0 0
0 0 0 0 0 0 0 0 0 0 0 0 0 0 0 0 0 0 0 0 0 0 0 0 0 0 0 0 0 0 0 0 0 0 0 0 0 0 0 0 0 0 0 0
Wind_Speed
15 9 13 17 20 23 25 24 20 19 20 20 18 17 16 15 13 10 9 7 8 9 10 11 12 13 13 14 14 14 14 14 13 12 11 11 10 10 9 8 8 7 7 7
14 12 13 13 17 22 25 24 25 23 23 19 17 15 15 15 13 12 10 9 8 9 10 12 13 13 13 14 14 14 14 13 12 12 11 11 10 9 9 8 8 7 7 7
13 12 9 17 20 20 19 20 19 22 23 18 16 15 15 13 12 11 10 8 7 9 10 11 12 13 14 14 14 14 14 13 12 12 12 11 10 9 9 8 8 7 7 8
7 10 15 11 10 19 20 20 21 18 17 16 16 12 10 10 11 10 8 7 6 6 8 8 9 11 11 12 13 13 13 13 12 12 11 10 10 9 9 7 7 7 7 8
8 11 12 6 7 12 16 18 19 21 21 17 8 6 10 9 9 8 6 4 3 4 5 7 9 10 11 12 12 12 12 12 12 12 11 10 10 9 8 7 7 7 7 8
9 10 12 9 9 10 9 12 12 17 19 14 8 7 7 3 4 3 2 2 3 4 5 7 8 10 12 12 12 12 11 11 11 11 11 10 9 8 6 6 6 6 7 8
13 12 11 4 8 13 11 8 5 11 13 11 12 8 2 5 4 4 4 4 5 5 6 6 8 10 11 10 10 9 9 9 9 9 9 8 7 6 6 5 6 7 8 8
14 14 11 9 13 14 7 3 4 6 8 10 9 5 5 5 5 5 6 6 6 6 7 6 8 9 10 9 8 9 9 9 8 8 6 5 6 5 5 6 7 7 8 9
13 12 4 15 13 10 4 6 6 6 7 8 8 7 7 6 6 6 6 6 6 7 8 7 7 8 9 8 9 9 9 8 7 6 5 5 5 5 5 5 6 6 7 8
8 9 7 11 9 7 7 6 6 6 7 9 9 9 9 7 7 7 7 7 7 8 9 7 7 7 8 8 8 8 8 7 5 5 4 4 4 4 5 5 6 6 7 8
10 5 5 8 13 11 9 6 5 5 6 8 9 9 9 8 8 8 7 7 7 7 8 8 8 7 7 8 8 7 6 5 4 3 3 4 5 5 6 7 7 8 8 8
12 12 10 11 13 14 12 11 10 9 7 7 8 9 9 8 8 8 8 8 8 8 8 8 8 7 7 6 6 6 4 3 3 2 3 4 5 5 8 11 13 15 17 15
7 8 8 4 6 11 12 11 10 9 9 9 8 8 9 8 8 8 9 9 9 8 8 8 8 7 6 5 5 4 3 3 2 3 3 4 5 6 7 8 12 15 17 19
6 7 6 6 6 8 7 8 8 7 7 7 8 9 9 9 9 9 9 8 8 9 8 8 7 6 5 4 3 3 3 3 3 4 4 5 6 7 7 9 9 9 11 15
8 6 5 7 8 8 8 10 10 9 9 8 8 9 10 10 10 9 8 9 9 8 7 7 6 5 4 3 3 2 3 2 3 4 5 6 6 7 8 10 10 10 10 11
9 6 7 9 10 10 10 11 11 10 10 10 9 9 9 10 10 9 9 8 9 8 6 5 4 3 3 2 2 2 3 4 5 5 6 6 7 8 8 9 10 10 11 10
13 11 10 10 11 11 10 9 10 11 11 11 11 11 12 12 11 10 8 7 6 6 5 4 3 2 2 1 2 2 3 4 7 7 6 7 8 8 9 10 10 11 11 12
10 12 13 13 13 12 10 10 10 11 10 11 12 12 12 12 11 10 8 7 6 5 3 3 2 1 1 1 2 3 4 5 5 6 7 8 9 9 10 11 12 13 12 12
7 9 10 10 11 12 12 12 11 11 12 12 13 12 11 10 10 9 8 6 5 4 3 2 1 1 2 3 4 4 5 6 7 7 8 11 11 10 10 11 12 12 12 12
9 11 12 12 12 12 13 13 13 12 11 12 13 12 11 9 8 7 6 4 2 2 1 1 1 2 3 4 6 5 6 8 8 9 9 9 10 11 11 11 12 12 12 12
13 14 15 15 15 14 13 14 14 14 12 11 12 12 10 8 7 5 4 3 2 1 1 2 2 3 4 6 8 7 7 8 9 9 10 10 10 11 11 12 12 12 12 12
14 15 16 16 17 15 12 12 13 14 13 12 11 10 9 7 5 4 3 1 1 2 3 3 3 5 8 10 7 7 8 9 9 9 9 10 10 11 12 12 12 12 12 12
14 15 16 17 17 16 14 12 12 12 12 11 10 8 7 5 3 2 2 1 1 4 4 4 6 10 13 9 7 8 9 9 9 10 10 10 11 11 11 13 12 12 12 12
16 16 16 16 16 17 15 12 11 10 10 9 8 7 5 4 2 2 1 2 4 6 5 6 10 13 13 7 7 8 8 9 9 10 10 10 10 11 11 12 12 12 12 14
16 16 16 16 14 12 12 12 11 10 9 7 7 6 4 3 1 1 2 3 5 7 5 7 11 12 9 7 8 8 8 9 10 10 10 10 11 11 11 12 12 12 12 12
14 12 11 11 10 9 8 7 7 6 5 5 4 3 3 2 1 2 2 4 6 7 6 6 7 8 7 8 8 9 9 10 11 10 10 11 12 12 12 12 15 13 12 12
14 12 10 10 8 7 7 6 6 5 4 3 3 2 2 2 2 3 4 4 5 5 6 6 7 7 8 8 9 9 9 9 10 10 10 11 11 11 12 14 12 12 12 12
Wind_Direction
229 208 186 201 207 210 217 227 240 248 250 254 255 259 267 275 280 278 267 242 219 210 204 197 196 196 194 191 186 182 181 183 183 178 175 173 173 175 177 184 191 197 206 216
216 206 203 215 217 215 221 230 240 251 258 260 264 267 267 268 268 264 260 247 226 212 206 201 197 194 192 190 186 183 185 185 178 173 172 174 175 176 180 188 194 201 213 224
212 200 208 233 223 219 221 226 233 242 250 257 259 257 258 261 261 258 255 245 226 215 209 204 198 194 192 188 182 183 185 181 176 174 173 175 174 179 187 194 200 211 222 231
186 178 221 236 213 218 225 230 228 238 250 253 257 266 266 258 255 255 251 245 230 214 206 201 193 188 183 179 179 182 183 179 175 174 174 173 178 186 193 199 207 219 229 238
191 212 236 229 203 200 212 235 231 234 244 251 255 269 260 242 235 244 251 243 227 201 190 181 179 174 170 172 175 180 182 179 175 174 172 175 184 191 195 203 216 226 235 243
197 212 228 226 186 177 187 240 230 221 232 236 196 235 248 168 178 192 179 159 149 148 152 158 162 163 165 169 174 180 179 175 171 172 173 180 187 191 197 209 225 233 242 248
208 221 238 200 148 156 193 231 191 203 216 206 200 222 133 131 136 135 128 124 129 132 134 142 150 156 161 164 172 169 164 162 164 170 175 179 183 191 202 215 230 241 251 255
208 218 221 161 160 188 207 143 167 183 193 192 196 179 153 149 144 142 134 129 131 127 122 130 146 152 154 157 152 149 151 154 160 166 164 172 184 198 212 224 239 250 257 263
202 215 173 168 191 203 177 178 183 182 181 177 177 181 171 164 157 149 143 135 134 129 123 127 142 150 145 141 142 144 148 153 156 160 166 181 198 211 223 232 242 254 261 267
197 211 191 194 205 204 199 198 186 180 169 170 174 171 166 160 157 152 147 143 140 137 133 131 135 136 131 134 141 145 149 152 157 168 182 197 208 220 230 238 247 255 263 268
207 194 188 215 216 211 202 199 179 170 177 179 168 166 166 162 161 154 147 145 148 145 138 134 132 127 128 136 143 147 150 154 167 186 204 222 229 234 241 246 249 257 264 267
205 193 193 207 207 201 196 200 192 174 168 173 175 165 159 157 154 151 148 147 146 143 138 135 133 130 132 139 149 151 157 171 188 209 225 240 253 258 239 245 258 258 262 266
199 180 196 184 182 186 194 196 184 178 169 163 163 157 151 145 147 145 146 149 147 143 139 137 135 134 137 143 152 164 180 197 215 231 243 253 260 269 277 264 253 258 263 267
174 150 167 182 176 172 166 155 148 144 142 144 143 142 139 135 139 144 146 144 139 136 136 136 136 137 141 150 163 184 207 222 239 249 257 263 266 270 275 282 285 279 270 271
186 185 168 146 135 134 135 136 137 139 136 132 135 139 140 139 139 135 132 132 131 130 133 136 137 138 144 160 184 213 234 245 254 264 265 267 270 271 273 276 278 283 285 281
165 144 140 145 149 148 149 152 151 150 146 140 137 135 131 126 123 122 127 135 137 138 139 139 139 137 147 171 204 236 250 254 266 272 272 271 272 273 275 277 279 280 282 285
155 165 168 166 167 165 165 162 155 148 143 139 134 128 125 122 121 120 121 120 118 120 127 133 132 129 151 198 245 262 268 268 268 271 271 274 275 275 276 277 278 280 281 284
188 183 177 170 166 159 149 140 136 135 133 131 129 129 131 132 130 127 123 118 112 109 109 111 110 125 186 251 272 275 273 274 274 275 276 275 277 277 278 278 280 283 285 286
148 146 146 145 146 142 136 132 129 124 124 128 127 124 121 120 121 123 124 124 125 121 108 95 86 291 286 285 287 277 274 276 277 277 278 281 282 279 280 280 282 283 285 286
128 124 122 119 120 123 123 123 120 117 120 123 119 116 114 114 118 119 118 109 93 85 85 21 307 291 292 288 288 279 277 279 281 283 283 281 281 282 282 282 283 284 284 284
126 122 118 115 110 109 115 120 119 117 117 119 118 117 116 115 115 115 116 111 93 74 355 308 301 299 297 295 290 283 283 283 284 284 284 284 284 284 284 284 284 284 284 285
121 119 117 115 111 106 106 109 111 113 111 109 109 112 114 113 110 101 94 99 68 349 320 300 297 299 303 302 291 287 286 286 285 285 285 285 285 286 286 286 286 286 285 285
114 114 113 112 110 107 102 101 104 107 108 109 110 110 108 106 104 106 95 69 349 321 310 297 304 307 309 303 292 290 289 288 287 286 286 286 285 285 286 286 286 286 286 285
109 107 107 108 108 105 102 99 96 95 96 95 92 94 98 99 88 74 37 333 321 314 303 303 308 310 311 301 294 291 289 288 287 287 286 285 284 284 284 285 285 285 285 286
106 107 108 108 104 103 107 106 101 98 96 93 90 83 73 62 61 14 331 316 316 314 305 306 309 311 307 295 291 289 288 285 286 288 286 287 287 287 286 286 286 286 285 284
102 99 96 94 99 105 109 107 103 100 100 98 90 77 62 46 18 337 319 313 310 310 308 304 303 303 295 292 291 290 289 291 292 289 287 288 287 287 286 286 287 286 284 283
96 96 95 91 87 90 95 96 97 94 91 94 91 70 36 7 345 332 320 312 310 307 303 300 299 296 294 294 293 292 291 290 289 289 289 288 288 288 288 288 288 287 286 285